Location: Campestrin
(46.4667°N, 11.7167°E)
Time: 17:12:49
(UTC+00:00)

Cosmos 1603 - Pass Details

Date: 18 April 2021
Orbit: 830 x 860 km, 71.0° (Epoch: 06 May)

Event Time Altitude Azimuth Distance (km) Brightness Sun altitude
Rises 21:42:41 0° 336° (NNW) 3,440 8.1 -29.0°
Reaches altitude 10° 21:45:15 10° 342° (NNW) 2,497 7.1 -29.2°
Enters shadow 21:50:38 50° 50° (NE) 1,078 4.2 -29.5°
